Litchfield, MN

10:31 AM CST on February 23, 2018 (GMT -0600)
Litchfield Municipal

Weather History for KLJF - December, 2013

Change the Weather History Date:

Sunday, December 22, 2013

  Actual Average Record
Temperature  
Mean Temperature 5 °F -  
Max Temperature 12 °F 24 °F 44 °F (2005)
Min Temperature -2 °F 7 °F -23 °F (1983)
Degree Days  
Heating Degree Days 60    
Moisture  
Dew Point 3 °F    
Average Humidity 85    
Maximum Humidity 92    
Minimum Humidity 78    
Precipitation  
Precipitation 0.00 in - - ()
Sea Level Pressure  
Sea Level Pressure 30.08 in    
Wind  
Wind Speed 9 mph (NW)    
Max Wind Speed 14 mph    
Max Gust Speed 21 mph    
Visibility 8 miles    
Events Snow    
Averages and records for this station are not official NWS values.
T = Trace of Precipitation, MM = Missing Value Source: NWS Daily Summary

Daily Weather History Graph

Daily Weather History Graph

Search for Another Location

Airport or City:

Trip Planner

Search our weather history database for the weather conditions in past years. The results will help you decide how hot, cold, wet, or windy it might be!

Date:

Astronomy

Dec. 22, 2013 Rise Set
Actual Time 7:54 AM CST 4:39 PM CST
Civil Twilight 7:20 AM CST 5:13 PM CST
Nautical Twilight 6:42 AM CST 5:50 PM CST
Astronomical Twilight 6:07 AM CST 6:26 PM CST
Moon 10:06 PM CST (12/22) 10:38 AM CST (12/22)
Length of Visible Light 9h 53m
Length of Day
8h 45m
Waning Gibbous, 76% of the Moon is Illuminated
Dec 22
Waning Gibbous
Dec 25
Last Quarter
Jan 1
New
Jan 7
First Quarter
Jan 15
Full

Hourly Weather History & Observations

Time (CST) Temp. Windchill Dew Point Humidity Pressure Visibility Wind Dir Wind Speed Gust Speed Precip Events Conditions
12:13 AM 10.4 °F -0.4 °F 8.6 °F 92% 29.97 in 10.0 mi NNW 6.9 mph - N/A   Overcast
12:33 AM 10.4 °F -1.5 °F 8.6 °F 92% 29.96 in 10.0 mi NNW 8.1 mph - N/A   Overcast
12:53 AM 10.4 °F -0.4 °F 8.6 °F 92% 29.96 in 10.0 mi NNW 6.9 mph - N/A   Overcast
1:13 AM 10.4 °F -0.4 °F 8.6 °F 92% 29.97 in 10.0 mi NW 6.9 mph - N/A   Overcast
1:33 AM 10.4 °F -0.4 °F 8.6 °F 92% 29.97 in 10.0 mi NNW 6.9 mph - N/A   Overcast
1:52 AM 10.4 °F -1.5 °F 8.6 °F 92% 29.97 in 10.0 mi NW 8.1 mph - N/A   Overcast
2:13 AM 10.4 °F -2.4 °F 8.6 °F 92% 29.98 in 10.0 mi NNW 9.2 mph - N/A   Overcast
2:32 AM 10.4 °F -2.4 °F 8.6 °F 92% 29.98 in 10.0 mi NNW 9.2 mph - N/A   Overcast
2:53 AM 12.2 °F 0.7 °F 8.6 °F 85% 29.98 in 10.0 mi NNW 8.1 mph - N/A   Overcast
3:13 AM 10.4 °F -2.4 °F 8.6 °F 92% 29.99 in 10.0 mi NW 9.2 mph - N/A   Overcast
3:32 AM 12.2 °F 0.7 °F 8.6 °F 85% 30.00 in 10.0 mi NNW 8.1 mph - N/A   Overcast
3:53 AM 12.2 °F -0.2 °F 8.6 °F 85% 29.99 in 10.0 mi NNW 9.2 mph - N/A   Overcast
4:13 AM 12.2 °F -0.2 °F 8.6 °F 85% 29.99 in 10.0 mi NW 9.2 mph - N/A   Overcast
4:32 AM 12.2 °F 1.7 °F 10.4 °F 92% 29.99 in 10.0 mi NW 6.9 mph - N/A   Overcast
4:53 AM 12.2 °F 1.7 °F 10.4 °F 92% 29.99 in 10.0 mi NW 6.9 mph - N/A Snow Light Snow
5:12 AM 12.2 °F -1.0 °F 10.4 °F 92% 30.00 in 4.0 mi NW 10.4 mph - N/A Snow Light Snow
5:33 AM 12.2 °F -1.8 °F 10.4 °F 92% 30.00 in 3.0 mi NW 11.5 mph - N/A Snow Light Snow
5:52 AM 12.2 °F -0.2 °F 10.4 °F 92% 30.00 in 3.0 mi NW 9.2 mph - N/A Snow Light Snow
6:13 AM - - - N/A% 30.00 in - NW 10.4 mph - N/A   Unknown
6:33 AM - - - N/A% 30.01 in - NW 10.4 mph - N/A   Unknown
6:53 AM - - - N/A% 30.00 in - NNW 10.4 mph - N/A   Unknown
7:13 AM 10.4 °F -1.5 °F 8.6 °F 92% 30.01 in - NW 8.1 mph - N/A   Overcast
7:33 AM 10.4 °F -3.3 °F 8.6 °F 92% 30.01 in - NNW 10.4 mph - N/A   Unknown
7:53 AM - - - N/A% 30.01 in - NNW 9.2 mph - N/A   Unknown
8:13 AM 10.4 °F -3.3 °F 8.6 °F 92% 30.01 in - NNW 10.4 mph - N/A   Overcast
8:32 AM 10.4 °F -1.5 °F 6.8 °F 85% 30.02 in - NW 8.1 mph - N/A   Overcast
8:53 AM 10.4 °F -2.4 °F 6.8 °F 85% 30.03 in - NW 9.2 mph - N/A   Overcast
9:13 AM 10.4 °F -3.3 °F 6.8 °F 85% 30.03 in - NW 10.4 mph - N/A   Overcast
9:32 AM 10.4 °F -3.3 °F 6.8 °F 85% 30.04 in - NNW 10.4 mph - N/A   Overcast
9:53 AM 10.4 °F -2.4 °F 6.8 °F 85% 30.05 in - NW 9.2 mph - N/A   Overcast
10:12 AM 10.4 °F -3.3 °F 6.8 °F 85% 30.06 in - NW 10.4 mph - N/A   Overcast
10:33 AM 10.4 °F -3.3 °F 6.8 °F 85% 30.07 in - NW 10.4 mph - N/A   Unknown
10:53 AM 10.4 °F -5.4 °F 6.8 °F 85% 30.06 in - NNW 13.8 mph - N/A   Unknown
11:13 AM 10.4 °F -3.3 °F 6.8 °F 85% 30.06 in - NNW 10.4 mph - N/A   Overcast
11:25 AM 10.4 °F -4.1 °F 6.8 °F 85% 30.06 in - NW 11.5 mph - N/A   Overcast
3:04 PM 10.4 °F -4.1 °F 5.0 °F 79% 30.09 in 5.0 mi NW 11.5 mph - N/A   Haze
3:13 PM 8.6 °F -7.7 °F 5.0 °F 85% 30.10 in 4.0 mi NW 13.8 mph 19.6 mph N/A Snow Light Snow
3:33 PM 8.6 °F -7.0 °F 3.2 °F 79% 30.10 in 5.0 mi NW 12.7 mph 16.1 mph N/A   Overcast
3:52 PM 8.6 °F -6.3 °F 3.2 °F 79% 30.11 in 5.0 mi NW 11.5 mph 18.4 mph N/A   Haze
4:13 PM 6.8 °F -6.9 °F 1.4 °F 79% 30.12 in 10.0 mi WNW 9.2 mph - N/A   Overcast
4:33 PM 6.8 °F -6.9 °F 1.4 °F 79% 30.13 in 10.0 mi WNW 9.2 mph - N/A   Overcast
4:52 PM 3.2 °F -13.1 °F -0.4 °F 85% 30.15 in 10.0 mi WNW 11.5 mph 17.3 mph N/A   Overcast
5:13 PM 3.2 °F -12.2 °F -2.2 °F 78% 30.16 in 10.0 mi WNW 10.4 mph - N/A   Overcast
5:33 PM 3.2 °F -12.2 °F -2.2 °F 78% 30.17 in 10.0 mi WNW 10.4 mph - N/A   Overcast
5:52 PM 1.4 °F -16.1 °F -2.2 °F 85% 30.17 in 10.0 mi WNW 12.7 mph - N/A   Overcast
6:13 PM 1.4 °F -15.3 °F -2.2 °F 85% 30.17 in 10.0 mi WNW 11.5 mph 17.3 mph N/A   Overcast
6:33 PM 1.4 °F -16.9 °F -4.0 °F 78% 30.17 in 10.0 mi NW 13.8 mph 20.7 mph N/A   Overcast
6:52 PM -0.4 °F -16.7 °F -4.0 °F 85% 30.18 in 10.0 mi WNW 10.4 mph 17.3 mph N/A   Overcast
7:13 PM -0.4 °F -18.4 °F -5.8 °F 78% 30.18 in 10.0 mi WNW 12.7 mph 19.6 mph N/A   Overcast
7:33 PM -0.4 °F -16.7 °F -5.8 °F 78% 30.19 in 10.0 mi WNW 10.4 mph - N/A   Overcast
7:53 PM -0.4 °F -16.7 °F -5.8 °F 78% 30.19 in 10.0 mi NW 10.4 mph 18.4 mph N/A   Overcast
8:12 PM -0.4 °F -17.6 °F -5.8 °F 78% 30.20 in 7.0 mi NW 11.5 mph 19.6 mph N/A   Overcast
8:33 PM -0.4 °F -16.7 °F -5.8 °F 78% 30.20 in 7.0 mi NW 10.4 mph 17.3 mph N/A   Overcast
8:53 PM -0.4 °F -16.7 °F -5.8 °F 78% 30.21 in 7.0 mi WNW 10.4 mph - N/A Snow Light Snow
9:12 PM -0.4 °F -15.7 °F -4.0 °F 85% 30.21 in 4.0 mi WNW 9.2 mph - N/A Snow Light Snow
9:33 PM -0.4 °F -15.7 °F -5.8 °F 78% 30.22 in 4.0 mi WNW 9.2 mph 16.1 mph N/A Snow Light Snow
9:53 PM -0.4 °F -15.7 °F -5.8 °F 78% 30.22 in 4.0 mi NW 9.2 mph 18.4 mph N/A Snow Light Snow
10:13 PM -0.4 °F -19.2 °F -5.8 °F 78% 30.23 in 5.0 mi WNW 13.8 mph 18.4 mph N/A   Haze
10:32 PM -0.4 °F -17.6 °F -5.8 °F 78% 30.24 in 5.0 mi WNW 11.5 mph 18.4 mph N/A   Overcast
10:53 PM -0.4 °F -17.6 °F -5.8 °F 78% 30.25 in 7.0 mi WNW 11.5 mph - N/A   Overcast
11:13 PM -0.4 °F -17.6 °F -5.8 °F 78% 30.25 in 7.0 mi WNW 11.5 mph 17.3 mph N/A   Overcast
11:32 PM -2.2 °F -19.9 °F -5.8 °F 85% 30.26 in 7.0 mi WNW 11.5 mph 18.4 mph N/A   Overcast
11:53 PM -2.2 °F -21.5 °F -5.8 °F 85% 30.26 in 7.0 mi WNW 13.8 mph 18.4 mph N/A   Overcast